Temperature
16 16 16 16 15 15 15 15 15 15 15 15 15 15 14 13 13 13 13 13 13 13 14 14 13 13 13 13 13 14 14 14 14 15 15 15 15 15
16 15 16 15 15 15 15 15 15 15 15 15 15 15 14 13 13 13 13 13 13 13 13 13 13 13 13 13 13 14 14 14 14 14 14 14 14 14
16 15 15 15 15 15 15 15 15 15 15 15 15 15 14 14 13 13 13 13 13 12 13 13 13 14 14 14 14 14 14 14 14 14 13 13 13 13
15 15 15 15 15 15 15 15 15 15 15 14 15 15 15 14 13 13 12 12 12 12 12 13 13 14 14 14 14 14 14 14 13 13 13 12 13 13
15 15 15 15 15 15 15 15 15 15 15 14 14 15 15 14 14 13 12 12 12 12 12 12 13 13 13 14 14 14 14 13 12 12 12 12 12 12
15 15 15 15 15 15 15 15 15 14 14 14 13 14 14 14 14 13 13 12 12 11 11 11 12 12 13 13 13 13 12 11 11 11 11 11 11 12
15 15 15 15 15 15 15 15 14 14 14 13 13 13 14 14 15 15 14 13 12 11 11 11 11 12 12 12 11 11 10 9 9 9 9 9 10 10
15 15 15 15 15 15 15 14 14 14 14 13 13 14 14 15 15 15 14 13 12 12 11 11 11 11 11 11 11 10 9 8 8 8 8 9 9 9
15 15 14 14 15 15 14 14 14 14 14 14 14 15 15 15 15 15 14 14 13 12 11 11 11 11 11 11 11 10 10 9 9 9 9 9 9 9
14 14 14 14 14 14 14 14 14 14 14 14 15 15 15 15 15 14 14 13 12 11 11 10 11 11 11 11 10 10 10 9 9 9 9 9 9 9
14 14 14 14 14 14 14 14 14 15 15 15 15 14 14 14 14 14 14 13 13 12 11 11 11 10 11 11 10 10 10 9 9 9 9 9 9 9
14 14 14 14 14 14 14 14 14 14 14 15 14 14 14 14 14 14 14 14 14 13 12 11 11 10 11 11 10 10 10 10 9 9 9 9 9 9
14 14 14 14 13 14 14 13 13 13 13 13 13 13 13 14 14 14 14 14 14 13 13 12 12 11 11 11 11 10 10 10 10 9 9 9 9 9
13 13 13 13 13 13 13 13 12 12 13 13 13 12 13 13 13 13 13 13 13 12 12 11 12 11 11 10 10 10 10 10 10 9 9 9 9 9
13 13 13 13 13 13 12 12 12 12 12 12 12 12 12 12 12 12 12 12 12 12 12 11 11 11 11 10 10 10 10 10 10 9 9 9 9 9
12 12 12 12 12 12 12 12 11 11 11 11 11 11 11 11 11 12 12 12 12 12 12 11 11 10 10 10 9 9 9 9 9 9 9 9 9 9
11 11 11 11 11 11 11 11 11 11 11 11 11 11 11 11 11 11 11 11 11 12 12 12 11 10 10 10 10 10 9 9 9 9 8 9 9 9
11 11 11 10 10 10 11 10 10 10 10 10 10 10 10 10 11 11 11 11 11 11 11 11 11 10 10 10 10 10 10 9 9 8 8 8 9 9
10 10 10 10 10 10 10 10 10 10 10 10 10 10 10 10 10 10 10 10 11 11 11 10 10 10 10 10 10 10 10 9 9 9 8 9 9 9
10 10 10 10 9 9 9 9 9 10 10 10 10 10 10 10 10 10 10 10 10 10 10 10 10 10 10 10 10 9 9 9 9 9 9 9 9 9
9 9 9 9 9 9 9 9 9 9 9 10 10 10 10 9 9 9 9 9 10 10 10 10 10 9 9 9 9 9 9 9 8 8 8 8 8 8
9 9 9 9 9 9 9 9 9 9 9 9 9 9 9 9 9 9 9 9 10 10 10 9 9 9 9 9 10 10 9 9 8 8 8 8 8 7
9 9 9 9 9 9 9 9 9 9 9 9 9 9 9 9 9 9 9 9 9 9 9 9 9 9 9 9 9 9 9 9 8 8 8 7 7 7
Wind_Speed
6 7 6 6 6 5 5 6 7 5 7 6 4 4 5 5 6 8 9 9 9 10 11 12 14 16 17 18 18 17 16 16 16 17 16 13 9 8
5 7 7 5 6 6 6 6 6 7 5 4 3 3 6 6 6 7 7 8 8 9 11 11 11 13 15 16 16 15 15 14 14 15 17 18 18 20
5 6 8 7 6 7 6 6 6 5 5 3 2 2 4 5 5 5 6 6 7 7 10 11 11 11 13 14 14 14 15 14 12 11 14 17 20 21
7 8 9 7 8 7 7 8 7 6 5 5 3 3 3 4 4 3 3 4 5 6 7 9 9 10 11 12 12 13 14 14 13 11 12 15 17 19
9 9 10 9 10 8 8 9 8 7 4 5 5 2 2 3 3 2 2 2 3 5 6 7 7 8 9 9 10 12 14 14 16 17 17 16 17 18
9 10 10 11 12 11 10 9 8 8 5 6 5 3 3 3 3 3 2 1 1 3 4 5 6 8 7 6 8 11 13 15 17 19 20 19 18 16
9 10 11 13 15 12 9 10 11 10 8 6 5 4 5 6 6 5 4 2 1 1 1 2 3 4 6 6 6 9 10 12 15 17 18 17 15 14
9 8 8 11 14 17 17 16 17 14 12 9 6 6 9 7 6 5 5 4 3 3 3 1 1 0 1 1 2 5 8 9 11 13 14 15 14 13
7 5 5 6 9 8 13 16 18 21 20 14 11 10 10 12 12 9 7 5 4 5 5 2 1 2 4 4 4 3 5 6 7 9 10 10 11 10
6 6 5 4 4 7 7 9 11 14 17 15 14 12 10 11 13 11 9 6 4 2 4 4 3 3 2 6 6 6 6 5 5 6 7 7 8 7
4 5 5 4 4 6 6 7 9 9 11 12 9 9 14 18 17 10 9 6 3 4 4 4 4 2 1 2 7 8 9 9 8 6 5 5 6 5
3 4 8 7 6 6 4 5 7 6 5 6 6 9 11 17 22 14 12 9 4 5 7 6 5 4 2 2 3 8 9 11 11 10 9 8 6 5
3 3 3 7 7 7 6 4 3 4 5 6 5 5 5 7 11 11 11 9 7 4 8 8 5 4 3 2 1 4 8 8 9 10 11 12 12 10
4 3 3 4 5 4 4 4 4 5 4 5 5 7 8 8 8 8 10 8 5 4 13 11 5 6 5 3 3 2 4 7 9 9 10 11 13 14
3 4 3 3 3 3 3 3 4 4 4 5 6 6 6 6 6 6 6 7 5 5 14 10 6 6 5 5 4 3 3 5 9 9 9 10 10 9
4 5 5 5 3 2 2 2 3 4 4 4 4 4 4 5 6 6 5 6 4 3 6 9 11 8 6 5 5 4 4 3 4 8 9 8 10 12
6 4 3 2 1 0 0 1 1 2 3 3 3 4 5 6 6 5 5 6 6 7 6 4 5 6 4 5 5 6 5 4 3 5 6 7 9 13
6 3 3 3 3 3 3 3 3 4 4 4 4 5 6 7 7 6 6 8 9 7 7 6 5 3 1 3 9 7 6 5 4 5 5 5 6 8
3 3 3 4 4 4 4 4 3 3 3 4 5 4 5 6 6 8 8 8 7 6 5 6 6 7 7 6 5 13 8 5 4 4 6 8 7 5
1 2 3 4 4 4 4 4 4 4 3 4 4 4 4 4 6 7 8 8 7 6 5 5 7 9 10 6 4 4 12 8 6 5 4 4 6 7
3 3 3 3 4 4 4 4 4 4 4 4 4 4 4 4 4 5 7 9 6 5 6 7 8 8 3 4 3 3 4 12 11 5 5 3 2 1
3 4 4 4 4 4 4 4 4 4 4 4 4 4 4 4 4 5 6 6 5 5 5 4 5 6 5 7 6 5 3 2 8 12 10 8 5 4
3 3 4 4 4 4 4 5 6 5 5 5 5 5 4 4 3 3 3 4 5 5 4 4 4 4 4 5 4 3 4 3 2 2 4 11 16 15
Wind_Direction
202 200 201 196 187 182 166 163 162 184 218 205 190 186 175 144 117 93 78 73 59 47 49 54 48 40 37 36 35 35 34 36 38 40 40 40 50 59
196 200 209 203 197 195 192 187 180 183 193 164 177 174 175 156 133 107 89 78 70 55 49 54 54 45 38 36 34 33 33 35 39 45 52 56 67 71
204 206 217 200 196 197 193 185 180 162 156 151 138 148 154 152 124 111 99 79 65 67 60 57 55 48 41 39 38 36 34 35 39 50 63 72 75 76
232 222 224 210 206 197 193 193 188 172 152 163 161 149 158 154 129 118 100 80 60 70 63 57 54 51 47 44 44 44 41 39 41 57 74 82 86 90
229 227 226 206 210 203 199 197 191 184 150 147 156 140 133 145 128 108 92 57 73 73 55 45 45 48 51 54 59 59 57 56 59 63 71 80 84 88
227 224 222 212 212 203 201 195 180 175 157 146 150 153 147 145 148 157 160 146 90 73 57 45 36 39 42 60 80 77 74 74 76 75 73 74 78 83
225 220 218 217 217 206 198 189 179 180 170 165 159 156 170 174 194 171 158 142 158 153 86 24 35 31 26 38 84 93 87 83 84 85 84 82 82 85
226 223 217 221 223 215 208 195 186 184 188 184 175 183 196 191 164 161 145 151 201 192 160 182 65 91 301 343 63 110 106 98 94 92 91 92 90 90
215 209 217 211 209 208 214 207 200 201 198 190 190 195 190 189 173 170 172 167 185 167 150 174 206 215 240 242 274 188 137 125 115 107 102 100 102 103
200 193 208 220 199 201 202 200 200 208 207 202 205 203 192 178 177 177 162 127 93 142 154 167 192 216 230 233 244 221 186 173 157 136 126 121 118 111
199 186 182 179 184 188 189 197 202 212 210 205 206 191 177 170 162 143 149 154 168 189 186 163 175 190 215 236 235 235 206 193 188 184 176 159 147 141
171 179 176 167 164 147 152 183 207 207 178 179 173 173 170 174 173 172 171 173 159 187 188 168 160 161 194 241 228 230 221 208 204 202 201 195 181 169
176 191 188 162 153 157 152 159 203 181 171 166 166 170 172 179 186 186 182 177 174 182 174 163 154 165 168 189 239 226 216 210 210 214 214 205 196 192
186 195 197 170 152 148 150 170 192 167 167 177 187 197 199 197 194 187 183 181 181 176 173 167 151 163 158 168 217 222 213 213 209 215 217 215 209 208
171 176 174 158 133 124 132 143 147 152 173 202 213 213 205 185 166 162 164 165 149 148 168 177 152 150 156 171 183 186 199 215 212 217 218 215 210 202
103 102 91 90 81 78 83 107 148 171 184 206 218 208 176 175 175 166 164 161 161 162 180 187 166 156 166 170 169 189 198 201 200 214 221 226 226 220
117 92 86 93 120 176 235 238 223 221 223 216 214 199 192 195 186 168 160 163 183 184 175 153 143 157 158 163 182 206 205 217 207 184 198 229 236 229
126 142 165 180 201 211 217 224 226 226 225 229 236 229 214 208 197 181 176 182 194 190 175 160 144 129 132 247 212 207 210 219 199 181 191 215 246 234
132 162 187 201 211 219 224 231 242 252 247 239 240 231 217 212 202 197 193 190 190 177 164 158 168 173 196 235 232 208 206 196 169 185 208 217 239 250
157 188 210 218 220 221 224 230 240 249 253 257 249 227 210 206 207 202 196 186 174 160 152 163 191 199 208 215 206 205 209 193 182 196 201 215 249 270
224 231 231 229 229 230 232 231 228 230 238 242 242 223 207 202 202 197 190 175 161 155 168 196 215 194 140 118 150 222 227 209 204 191 177 179 215 255
235 236 240 238 233 229 227 225 225 225 227 227 226 216 204 198 201 194 185 174 163 161 170 164 147 155 169 189 208 212 214 214 215 223 215 203 180 210
248 242 236 235 235 230 224 223 224 226 217 214 213 207 196 193 190 183 178 164 150 155 155 156 158 168 181 194 209 215 209 196 189 193 235 241 242 249
Height
1532 1534 1535 1537 1539 1542 1544 1546 1548 1549 1550 1551 1553 1553 1553 1553 1553 1553 1553 1553 1552 1551 1550 1549 1549 1549 1548 1547 1547 1547 1547 1546 1545 1544 1543 1542 1541 1541
1528 1530 1532 1534 1535 1537 1539 1542 1544 1546 1547 1549 1550 1551 1552 1551 1551 1551 1552 1551 1551 1550 1549 1549 1549 1549 1548 1548 1548 1548 1548 1547 1546 1545 1543 1542 1541 1541
1524 1526 1527 1529 1531 1533 1535 1537 1539 1541 1543 1546 1547 1548 1549 1549 1549 1549 1550 1550 1549 1549 1548 1548 1548 1548 1548 1547 1547 1548 1548 1547 1546 1545 1544 1543 1543 1542
1520 1521 1522 1524 1526 1528 1530 1532 1534 1537 1539 1541 1543 1545 1546 1547 1547 1547 1548 1548 1548 1548 1548 1547 1547 1547 1547 1547 1547 1547 1547 1546 1546 1545 1544 1544 1544 1544
1514 1515 1516 1518 1520 1522 1525 1527 1529 1532 1534 1537 1539 1542 1543 1544 1544 1545 1545 1546 1546 1546 1546 1546 1546 1546 1546 1545 1545 1546 1546 1546 1545 1545 1545 1545 1545 1545
1509 1510 1511 1512 1514 1517 1519 1521 1524 1526 1529 1532 1535 1538 1539 1541 1541 1542 1542 1543 1544 1544 1544 1544 1544 1544 1544 1544 1544 1544 1544 1544 1545 1545 1545 1545 1545 1545
1503 1504 1505 1506 1508 1511 1513 1515 1517 1520 1523 1526 1529 1532 1534 1536 1537 1538 1539 1540 1541 1542 1542 1542 1542 1543 1543 1543 1542 1542 1543 1543 1544 1544 1545 1545 1545 1546
1497 1499 1500 1501 1503 1505 1507 1510 1512 1513 1516 1519 1523 1526 1529 1532 1535 1536 1537 1537 1538 1539 1540 1540 1541 1541 1541 1541 1541 1541 1542 1543 1543 1544 1544 1544 1545 1546
1492 1494 1496 1497 1499 1501 1503 1505 1506 1508 1511 1514 1516 1520 1525 1528 1531 1533 1533 1534 1535 1537 1537 1538 1538 1538 1539 1539 1540 1540 1541 1542 1543 1544 1544 1545 1546 1547
1488 1489 1492 1494 1496 1498 1499 1501 1503 1505 1507 1509 1512 1517 1521 1525 1527 1529 1531 1532 1532 1533 1534 1535 1536 1536 1537 1537 1538 1538 1540 1541 1542 1543 1544 1544 1546 1547
1484 1486 1488 1490 1492 1494 1495 1497 1499 1501 1503 1505 1508 1513 1516 1519 1522 1524 1526 1527 1528 1529 1531 1532 1533 1534 1534 1534 1535 1536 1538 1539 1540 1542 1543 1543 1544 1546
1481 1483 1484 1486 1488 1490 1491 1493 1495 1497 1499 1501 1504 1508 1511 1514 1516 1519 1522 1523 1524 1526 1527 1528 1529 1531 1531 1532 1532 1534 1535 1537 1538 1540 1541 1542 1543 1544
1479 1480 1481 1483 1484 1486 1488 1489 1491 1493 1495 1497 1501 1504 1507 1509 1511 1514 1517 1520 1521 1523 1524 1525 1526 1527 1528 1530 1530 1531 1532 1533 1535 1537 1538 1539 1540 1541
1476 1478 1479 1480 1481 1483 1485 1486 1488 1491 1493 1494 1496 1498 1501 1503 1506 1509 1513 1515 1518 1520 1522 1523 1523 1524 1526 1527 1529 1529 1529 1530 1531 1533 1535 1536 1537 1538
1474 1475 1477 1478 1479 1481 1483 1484 1486 1488 1490 1492 1493 1495 1497 1500 1502 1505 1507 1509 1512 1514 1516 1519 1521 1522 1524 1525 1526 1527 1527 1528 1528 1529 1530 1531 1532 1533
1473 1474 1475 1476 1478 1479 1480 1482 1484 1485 1487 1489 1490 1492 1493 1495 1497 1500 1502 1504 1506 1509 1512 1515 1517 1519 1521 1523 1524 1525 1525 1526 1526 1527 1527 1527 1528 1528
1471 1472 1474 1475 1475 1476 1477 1478 1480 1482 1483 1484 1485 1486 1487 1489 1491 1493 1495 1498 1500 1503 1506 1510 1513 1515 1517 1519 1520 1521 1522 1523 1524 1524 1524 1524 1525 1524
1469 1470 1471 1472 1473 1474 1475 1476 1477 1478 1479 1480 1480 1481 1482 1483 1484 1486 1488 1490 1493 1497 1500 1504 1508 1510 1513 1514 1516 1517 1518 1518 1519 1519 1519 1519 1520 1521
1467 1468 1469 1470 1470 1471 1472 1473 1474 1475 1475 1475 1476 1476 1476 1477 1477 1479 1481 1482 1485 1489 1493 1498 1502 1505 1506 1507 1510 1512 1512 1513 1513 1513 1513 1513 1514 1515
1465 1465 1466 1467 1467 1468 1469 1470 1470 1471 1471 1471 1471 1471 1471 1472 1471 1471 1473 1475 1477 1481 1485 1490 1494 1498 1500 1502 1504 1505 1506 1507 1507 1507 1508 1507 1507 1507
1463 1464 1464 1465 1465 1466 1466 1467 1467 1467 1467 1466 1466 1467 1467 1467 1467 1467 1467 1469 1472 1475 1479 1484 1488 1492 1494 1495 1496 1497 1500 1501 1501 1502 1502 1502 1502 1502
1461 1461 1462 1462 1462 1462 1462 1462 1463 1463 1463 1463 1463 1463 1463 1464 1464 1464 1465 1467 1469 1473 1476 1479 1482 1485 1487 1488 1490 1492 1493 1494 1495 1496 1497 1498 1497 1497
1460 1460 1459 1459 1459 1459 1458 1458 1458 1459 1459 1460 1460 1460 1460 1460 1460 1461 1462 1464 1466 1469 1472 1474 1476 1478 1480 1482 1484 1486 1487 1488 1489 1490 1492 1492 1493 1493